Date,TemperatureHighF,TemperatureAvgF,TemperatureLowF,DewpointHighF,DewpointAvgF,DewpointLowF,HumidityHigh,HumidityAvg,HumidityLow,PressureMaxIn,PressureMinIn,WindSpeedMaxMPH,WindSpeedAvgMPH,GustSpeedMaxMPH,PrecipitationSumIn
2014-1-5,45.0,45.0,45.0,31.9,31.9,31.9,60,60,60,30.21,30.21,1,1,4,0.00
2014-1-6,45.0,45.0,45.0,31.9,31.9,31.9,60,60,60,30.21,30.21,1,1,4,0.00
2014-1-7,45.0,45.0,45.0,31.9,31.9,31.9,60,60,60,30.21,30.21,1,1,4,0.00
2014-1-8,45.0,45.0,45.0,31.9,31.9,31.9,60,60,60,30.21,30.21,1,1,4,0.00
2014-1-9,45.0,45.0,45.0,31.9,31.9,31.9,60,60,60,30.21,30.21,1,1,4,0.00
2014-1-10,45.0,45.0,45.0,31.9,31.9,31.9,60,60,60,30.21,30.21,1,1,4,0.00
2014-1-11,72.8,50.8,42.0,38.2,33.3,31.1,65,53,23,30.21,30.04,17,3,28,0.00
2014-1-12,61.4,51.5,41.0,39.7,36.1,30.1,80,57,32,30.29,30.07,14,5,21,0.00
2014-1-18,61.1,56.2,48.7,11.5,9.3,7.1,19,15,14,30.15,30.14,3,2,4,0.00
2014-1-19,60.4,44.2,27.5,13.8,10.9,6.5,41,28,15,30.24,30.21,2,1,4,0.00
2014-1-20,73.0,46.1,26.3,15.9,11.0,6.6,45,27,10,30.31,30.18,4,1,8,0.00
2014-1-21,70.2,49.1,31.3,18.2,13.6,7.9,45,26,11,30.33,30.17,3,1,6,0.00
2014-1-23,68.5,56.8,32.0,18.1,15.1,9.8,41,20,12,30.22,30.01,12,5,0,0.00
2014-1-24,53.4,41.9,37.9,22.0,16.9,14.8,43,36,29,30.33,30.22,2,0,3,0.00
2014-1-26,55.0,50.6,46.3,27.7,25.6,22.9,43,38,33,30.04,30.01,4,1,7,0.00
2014-1-27,72.3,54.3,35.8,28.2,22.8,17.6,57,31,14,30.10,29.99,10,3,14,0.00
2014-1-28,72.6,53.2,34.8,29.5,23.4,15.5,51,34,15,30.17,30.07,7,2,10,0.00
2014-1-29,79.8,56.3,36.3,44.1,33.0,21.7,59,44,20,30.13,29.86,14,4,21,0.00
2014-1-30,60.9,55.6,49.8,47.8,41.9,33.3,87,62,37,29.85,29.72,15,7,27,0.00
2014-1-31,50.3,46.4,40.9,45.9,34.6,21.3,88,64,42,29.99,29.77,19,8,30,0.00
2014-2-1,57.8,43.5,31.4,28.9,21.9,8.3,76,47,14,30.11,29.97,13,4,17,0.00
2014-2-2,44.2,28.3,23.4,22.8,18.6,14.7,77,67,41,30.11,30.04,3,1,4,0.00
2014-2-3,40.9,38.0,32.4,31.1,29.2,25.7,78,70,66,30.00,29.97,6,2,9,0.00
2014-2-4,58.9,43.0,28.1,33.6,28.1,18.8,88,59,24,30.08,29.97,11,4,15,0.00
2014-2-5,60.2,44.2,29.4,31.2,27.8,23.7,80,55,27,30.14,29.99,10,3,16,0.00
2014-2-8,70.6,60.3,50.7,45.8,40.7,24.8,77,51,19,30.19,30.08,16,8,23,0.00
2014-2-9,73.5,56.7,43.7,45.2,38.7,17.5,90,57,14,30.12,29.96,20,6,28,0.00
2014-2-10,66.0,59.0,53.2,47.1,42.0,36.7,76,55,35,30.10,29.98,18,10,27,0.00
2014-2-11,71.2,55.0,42.5,44.5,39.7,31.4,91,60,30,30.15,30.02,10,2,17,0.00
2014-2-12,86.3,58.5,36.7,32.7,24.3,6.2,72,35,9,30.20,30.03,12,3,19,0.00
2014-2-13,82.5,67.1,54.6,23.7,16.1,1.3,25,15,8,30.07,29.94,16,8,25,0.00
2014-2-14,84.1,66.4,50.3,26.6,15.6,6.5,29,16,6,30.02,29.93,13,5,21,0.00
2014-2-15,83.6,58.1,42.1,24.9,15.1,10.1,31,20,8,30.02,29.91,12,3,20,0.00
2014-2-16,75.8,60.8,43.7,41.5,30.7,15.7,60,35,18,30.03,29.90,12,5,19,0.00
2014-2-17,76.3,54.6,35.2,40.4,30.7,19.4,69,45,12,30.06,29.90,12,4,20,0.00
2014-2-18,77.7,57.1,42.3,38.3,32.9,26.5,77,45,16,30.06,29.92,9,3,14,0.00
2014-2-19,65.6,55.4,44.8,38.0,33.0,26.2,61,44,23,30.01,29.85,16,7,26,0.00
2014-2-20,73.2,55.0,39.1,39.5,27.0,14.7,76,39,13,30.16,29.99,13,3,30,0.00
2014-2-21,74.8,53.1,33.0,31.5,21.8,14.4,52,33,12,30.09,29.89,6,2,9,0.00
2014-2-22,74.7,54.7,35.2,32.8,25.5,20.3,57,36,14,29.96,29.83,6,2,10,0.00
2014-2-23,78.4,55.6,35.7,33.0,27.1,21.9,63,37,14,29.99,29.87,5,2,10,0.00
2014-2-24,80.1,56.3,37.1,35.5,27.6,21.8,58,37,13,30.01,29.87,7,2,10,0.00
2014-2-25,47.4,43.9,39.7,29.1,27.7,23.9,61,53,48,29.95,29.91,3,2,6,0.00
2014-2-26,61.2,53.8,47.7,48.2,43.4,29.5,89,69,36,29.97,29.88,12,7,0,0.02
2014-2-27,65.5,56.0,49.6,49.1,44.2,34.9,90,67,38,29.94,29.77,11,7,0,0.02
2014-2-28,58.6,49.2,45.6,51.8,45.2,34.0,96,87,47,29.78,29.53,16,6,28,1.23
2014-3-1,51.3,46.5,45.1,46.8,43.4,41.7,93,89,83,29.79,29.68,8,4,16,0.10
2014-3-2,56.6,47.7,38.8,48.0,43.4,37.5,97,86,72,30.10,29.93,9,3,17,0.00
2014-3-3,66.0,54.8,38.8,48.9,44.7,37.1,95,71,45,30.15,30.01,6,2,0,0.00
2014-3-4,66.5,55.8,45.9,46.3,44.2,41.8,88,67,43,30.03,29.94,16,5,26,0.00
2014-3-5,77.0,57.6,39.8,46.8,42.2,37.4,94,62,26,30.11,29.97,5,2,11,0.00
2014-3-6,72.2,60.2,49.7,52.8,45.8,36.1,79,60,43,30.01,29.89,19,8,29,0.00
2014-3-7,62.4,51.4,44.8,37.8,34.7,27.9,73,54,32,30.05,29.92,12,4,24,0.00
2014-3-8,57.1,55.4,53.7,29.4,27.7,25.7,39,34,30,30.20,30.19,4,2,5,0.00
2014-3-9,79.0,58.4,42.8,37.6,29.8,15.7,71,40,11,30.22,30.06,8,2,18,0.00
2014-3-10,73.5,56.9,43.5,42.2,32.0,-99.9,73,44,18,30.08,29.94,14,-11,23,0.00
2014-3-11,71.4,58.1,44.9,42.3,30.9,19.8,77,41,17,30.06,29.97,10,4,20,0.00
2014-3-12,69.1,55.3,40.1,25.7,19.9,13.1,55,26,15,30.14,29.97,10,5,25,0.00
2014-3-13,73.1,56.3,36.1,29.0,22.2,14.9,64,31,12,29.99,29.89,13,5,20,0.00
2014-3-14,77.9,62.8,46.9,28.7,21.0,7.2,46,22,7,30.07,29.96,12,5,19,0.00
2014-3-15,82.1,64.4,45.1,37.4,29.9,19.3,55,30,13,30.27,30.07,11,3,14,0.00
2014-3-16,86.3,65.3,40.2,39.4,30.1,13.3,76,36,7,30.30,30.05,8,3,13,0.00
2014-3-17,71.5,63.1,56.3,41.2,32.7,21.8,52,34,16,30.06,29.72,20,11,33,0.00
2014-3-18,71.6,58.1,43.6,39.4,22.6,7.8,71,33,10,29.97,29.76,10,4,21,0.00
2014-3-19,75.1,54.6,31.6,22.0,14.4,6.4,60,26,8,30.12,29.97,6,2,14,0.00
2014-3-20,77.2,56.8,38.1,39.2,27.5,19.2,55,36,14,30.05,29.84,9,3,18,0.00
2014-3-21,74.2,58.6,43.2,45.8,37.5,30.3,70,48,22,29.89,29.79,13,5,24,0.00
2014-3-22,80.2,62.2,50.1,44.4,35.6,29.5,65,40,17,29.99,29.84,9,4,18,0.00
2014-3-23,79.5,59.7,36.8,36.0,28.7,20.3,56,34,14,30.07,29.94,7,3,12,0.00
2014-3-24,84.5,64.5,44.0,36.3,29.1,12.2,64,33,7,30.07,29.90,9,3,16,0.00
2014-3-25,80.5,59.2,41.9,47.5,36.7,21.0,78,48,12,29.94,29.71,15,5,24,0.00
2014-3-26,61.8,53.3,47.3,44.8,39.9,31.9,87,62,36,29.88,29.73,15,9,24,0.00
2014-3-27,59.5,52.4,46.5,38.7,36.0,33.3,70,55,41,30.05,29.87,16,10,24,0.00
2014-3-28,76.5,58.9,46.6,37.3,33.5,25.3,66,42,18,30.13,30.00,10,3,15,0.00
2014-3-29,78.6,60.2,42.4,44.4,34.7,25.3,64,41,19,30.07,29.85,15,6,27,0.00
2014-3-30,61.4,52.9,45.5,44.5,35.6,29.0,74,54,30,30.00,29.84,17,8,26,0.00
2014-3-31,64.5,51.7,40.0,39.0,33.3,26.0,74,51,29,29.99,29.82,16,8,32,0.00
2014-4-1,57.1,47.0,40.0,41.8,35.9,19.2,90,69,24,29.92,29.85,13,7,22,0.08
2014-4-2,44.4,41.3,38.7,38.7,35.8,31.7,86,81,68,29.88,29.85,11,5,16,0.00
2014-4-3,68.6,60.6,49.3,40.7,31.7,19.4,57,36,17,30.11,29.97,9,4,17,0.00
2014-4-4,64.4,52.9,42.9,39.7,32.1,14.2,75,49,17,30.00,29.83,12,6,29,0.00
2014-4-5,62.4,52.6,43.5,39.4,36.9,34.8,82,57,37,30.06,29.85,18,10,28,0.00
2014-4-6,79.7,60.6,42.2,40.8,35.4,25.4,76,44,15,30.16,30.00,12,4,18,0.00
2014-4-7,87.4,64.5,39.8,39.4,30.9,19.7,71,36,9,30.17,30.02,9,2,16,0.00
2014-4-8,88.5,66.3,43.8,39.3,29.8,11.2,61,31,6,30.11,29.95,8,3,14,0.00
2014-4-9,88.8,67.8,48.3,38.4,23.6,1.9,57,26,4,30.00,29.86,10,3,20,0.00
2014-4-10,88.3,67.9,46.6,34.5,23.6,7.4,51,23,5,29.93,29.80,10,4,19,0.00
2014-4-11,83.3,69.1,55.2,36.9,22.2,-0.7,45,21,4,29.86,29.69,13,5,24,0.00
2014-4-12,79.7,66.8,55.7,41.9,34.7,24.1,51,31,21,29.74,29.64,13,6,27,0.00
2014-4-13,82.1,67.7,52.5,43.4,38.5,31.7,65,37,18,29.90,29.72,14,6,23,0.00
2014-4-14,84.8,66.6,47.4,41.8,23.3,8.7,66,27,6,30.09,29.90,8,3,21,0.00
2014-4-15,84.4,66.4,47.7,40.3,29.8,19.2,44,27,12,29.97,29.72,11,3,19,0.00
2014-4-16,88.3,71.8,59.1,36.4,28.3,8.5,38,22,7,29.75,29.61,14,5,20,0.00
2014-4-17,83.8,67.7,49.4,49.2,37.2,28.4,66,35,16,29.77,29.68,11,4,24,0.00
2014-4-18,80.6,65.4,55.6,50.3,45.7,38.7,74,51,23,29.83,29.70,10,5,20,0.00
2014-4-19,82.3,66.8,48.1,47.6,43.8,39.5,76,47,25,29.90,29.81,12,4,19,0.00
2014-4-20,87.3,73.0,54.6,42.2,35.6,30.3,41,27,15,29.97,29.87,10,4,20,0.00
2014-4-21,86.1,67.3,44.5,47.4,35.3,22.3,53,34,10,29.98,29.83,12,4,21,0.00
2014-4-22,65.6,59.7,54.0,41.8,30.6,18.4,55,34,19,29.90,29.78,21,10,30,0.00
2014-4-23,78.5,59.8,43.0,33.5,26.1,14.9,56,31,10,29.95,29.84,12,5,25,0.00
2014-4-24,80.3,62.2,42.5,38.7,31.6,22.1,55,34,12,29.97,29.80,13,5,20,0.00
2014-4-25,68.1,58.6,45.6,46.9,42.4,36.9,91,57,41,29.83,29.65,18,9,31,0.05
2014-4-26,55.0,49.1,39.7,39.4,35.5,30.1,83,60,46,29.94,29.63,21,12,34,0.03
2014-4-27,69.0,56.7,45.9,37.4,34.9,29.8,70,46,27,29.99,29.90,20,9,29,0.00
2014-4-28,77.8,63.3,49.5,41.6,37.5,30.9,72,41,19,30.05,29.92,19,9,25,0.00
2014-4-29,83.8,67.1,45.4,39.0,22.2,8.7,70,26,6,30.18,30.01,15,5,25,0.00
2014-4-30,83.7,67.6,47.1,20.2,11.9,-0.1,33,13,4,30.18,29.98,11,5,21,0.00
2014-5-1,91.3,71.3,46.1,33.8,14.9,-0.9,32,14,3,30.14,29.93,10,4,21,0.00
2014-5-2,95.3,71.2,54.0,40.0,30.0,19.8,48,25,7,29.98,29.83,8,2,14,0.00
2014-5-3,88.7,70.3,60.8,36.0,30.3,16.5,37,24,8,29.87,29.79,9,5,15,0.00
2014-5-4,85.2,74.7,59.3,44.4,32.2,13.7,57,26,7,29.85,29.75,13,8,24,0.00
2014-5-5,75.3,63.2,54.3,47.6,43.0,27.9,73,51,22,29.85,29.73,13,8,27,0.00
2014-5-6,60.7,54.3,46.2,44.0,35.6,31.7,68,50,36,29.78,29.73,18,11,27,0.00
2014-5-7,70.6,60.7,48.8,41.6,35.7,25.1,67,42,19,29.85,29.76,17,9,26,0.00
2014-5-8,78.6,63.9,49.7,41.1,35.8,25.1,71,39,16,29.95,29.85,14,6,27,0.00
2014-5-9,72.6,64.1,56.3,48.2,42.9,34.1,67,47,31,29.97,29.82,19,10,32,0.00
2014-5-10,70.1,62.2,52.4,42.9,33.3,19.8,61,36,15,29.87,29.73,22,11,32,0.00
2014-5-11,78.4,63.6,49.0,34.7,21.2,0.8,53,24,5,29.97,29.82,17,8,27,0.00
2014-5-12,86.2,68.1,42.6,25.9,19.6,6.9,47,19,5,30.09,29.93,8,3,18,0.00
2014-5-13,86.3,70.9,51.4,27.5,17.4,3.8,31,15,5,30.15,30.00,11,4,28,0.00
2014-5-14,91.8,74.9,56.1,26.1,14.8,8.4,20,11,5,30.13,29.97,11,5,19,0.00
2014-5-15,98.1,75.3,47.7,36.1,21.0,2.3,31,16,3,30.06,29.89,8,2,14,0.00
2014-5-16,94.6,80.4,67.7,38.7,29.1,16.8,28,17,6,29.94,29.75,13,7,23,0.00
2014-5-17,93.7,78.8,62.0,35.4,27.1,11.9,30,17,5,29.80,29.66,15,7,24,0.00
2014-5-18,80.7,70.3,60.0,42.5,36.4,27.3,45,30,18,29.74,29.67,20,10,29,0.00
2014-5-19,78.3,65.4,54.8,48.5,39.9,20.0,67,43,12,29.79,29.70,15,9,25,0.00
2014-5-20,66.8,58.5,49.8,44.9,38.3,29.1,73,49,30,29.87,29.79,15,7,25,0.00
2014-5-21,75.1,62.9,51.3,44.3,41.3,36.7,64,47,28,29.87,29.79,13,6,18,0.00
2014-5-22,80.0,61.4,46.4,52.0,43.5,36.6,80,55,22,29.93,29.83,13,3,19,0.01
2014-5-23,85.7,69.3,47.7,48.6,41.8,34.0,86,44,18,29.90,29.78,15,6,26,0.00
2014-5-24,89.7,79.1,68.9,45.8,42.0,35.0,42,28,15,29.82,29.67,17,8,31,0.00
2014-5-25,97.8,82.1,66.1,51.3,45.3,36.9,53,30,13,29.81,29.68,12,4,21,0.00
2014-5-26,97.3,83.4,70.4,50.9,43.5,29.5,49,27,12,29.79,29.71,9,5,17,0.00
2014-5-27,98.4,81.6,65.3,44.1,34.4,10.5,45,21,4,29.82,29.72,12,5,21,0.00
2014-5-28,89.2,75.7,65.1,35.0,30.0,23.7,30,20,10,29.77,29.68,13,7,20,0.00
2014-5-29,89.0,72.9,57.1,43.6,27.4,19.4,29,19,10,29.79,29.72,11,5,22,0.00
2014-5-30,92.2,72.6,49.1,36.5,24.9,14.5,43,19,6,29.80,29.70,11,4,23,0.00
2014-5-31,90.7,74.8,55.1,34.9,28.5,21.5,34,20,9,29.78,29.70,12,5,23,0.00
2014-6-1,93.2,75.2,56.6,42.6,29.1,7.2,36,21,4,29.78,29.66,11,4,20,0.00
2014-6-2,88.5,72.6,55.3,36.6,24.3,6.2,38,20,5,29.75,29.68,18,7,33,0.00
2014-6-3,91.6,72.7,48.8,32.0,23.2,9.4,35,18,5,29.79,29.69,11,4,21,0.00
2014-6-4,94.8,75.5,53.6,38.4,32.0,22.1,50,23,9,29.74,29.64,12,4,24,0.00
2014-6-5,101.0,77.8,54.6,42.7,35.0,24.0,45,24,7,29.73,29.59,10,3,21,0.00
2014-6-6,93.4,81.3,67.1,44.6,34.9,23.6,37,21,9,29.64,29.56,11,5,20,0.00
2014-6-7,101.1,85.5,69.2,40.7,32.9,26.1,35,17,8,29.63,29.53,14,6,26,0.00
2014-6-8,107.8,90.3,71.9,48.9,36.8,16.6,33,18,5,29.65,29.54,12,4,19,0.00
2014-6-9,104.5,85.1,61.9,47.3,35.2,22.3,47,22,6,29.65,29.55,10,3,22,0.00
2014-6-10,96.0,79.9,63.1,50.2,41.2,32.9,46,27,12,29.63,29.55,14,6,27,0.00
2014-6-11,92.1,77.8,66.4,49.5,43.3,34.5,47,30,20,29.71,29.62,14,8,28,0.00
2014-6-12,92.4,79.8,66.7,49.4,39.0,20.1,41,25,15,29.74,29.68,15,8,26,0.00
2014-6-13,87.4,75.5,62.8,44.2,34.0,25.3,43,24,12,29.76,29.68,15,8,26,0.00
2014-6-14,93.9,76.3,59.2,36.9,25.8,15.0,38,18,6,29.76,29.65,11,4,21,0.00
2014-6-15,84.3,73.5,62.3,48.4,39.0,26.5,59,31,15,29.69,29.60,16,9,30,0.00
2014-6-16,81.2,69.4,57.2,48.3,43.4,31.4,66,42,18,29.74,29.67,15,8,31,0.00
2014-6-17,80.5,69.2,57.6,50.4,41.6,28.6,58,38,19,29.76,29.70,15,8,28,0.00
2014-6-18,91.9,74.0,55.0,47.0,31.7,21.8,43,24,8,29.85,29.74,9,3,19,0.00
2014-6-19,99.6,80.5,58.3,37.9,31.0,21.0,37,19,7,29.87,29.75,8,3,14,0.00
2014-6-20,98.2,81.5,63.0,37.7,28.4,12.9,34,17,5,29.82,29.70,12,4,26,0.00
2014-6-21,95.3,80.2,61.7,52.2,36.6,19.4,42,23,7,29.73,29.64,14,6,25,0.00
2014-6-22,96.6,81.1,60.1,44.3,24.8,14.3,37,14,6,29.72,29.65,11,6,26,0.00
2014-6-23,94.9,82.0,64.7,48.4,34.3,23.4,39,19,8,29.75,29.67,11,5,22,0.00
2014-6-24,95.6,82.9,67.8,42.7,35.7,29.1,36,20,10,29.76,29.68,15,7,22,0.00
2014-6-25,96.0,82.9,71.7,45.7,40.6,28.9,35,24,10,29.73,29.64,15,8,26,0.00
2014-6-26,84.3,74.9,64.4,51.6,48.6,44.0,56,41,27,29.75,29.67,20,11,30,0.00
2014-6-27,91.3,76.9,63.2,49.7,45.4,39.8,56,35,18,29.75,29.65,23,9,29,0.00
2014-6-28,98.4,82.1,68.3,54.0,45.3,28.4,55,30,9,29.70,29.63,11,5,17,0.00
2014-6-29,106.6,85.2,64.7,48.7,40.2,29.1,42,23,9,29.74,29.62,12,4,20,0.00
2014-6-30,105.2,85.3,65.9,54.5,41.6,30.4,39,23,10,29.71,29.60,12,4,16,0.00
2014-7-1,102.0,85.3,64.9,49.6,43.6,25.9,47,26,8,29.67,29.60,12,5,18,0.00
2014-7-2,100.3,84.6,66.8,50.2,40.6,23.8,46,25,7,29.71,29.64,12,5,22,0.00
2014-7-3,101.1,84.7,67.1,48.6,36.2,19.8,40,21,6,29.77,29.68,10,5,17,0.00
2014-7-4,96.9,83.0,66.1,57.2,47.9,35.1,44,30,18,29.86,29.77,11,5,24,0.00
2014-7-5,99.6,84.9,70.6,51.4,46.2,39.1,46,27,16,29.91,29.79,14,6,22,0.00
2014-7-6,101.7,87.9,73.5,44.5,39.1,31.2,32,19,12,29.87,29.72,11,4,20,0.00
2014-7-7,102.4,88.3,72.4,44.4,34.1,19.9,25,16,6,29.76,29.65,11,4,22,0.00
2014-7-8,103.6,86.5,69.5,50.9,43.1,30.1,41,24,10,29.76,29.66,13,4,23,0.00
2014-7-9,100.2,84.1,69.6,52.7,45.8,36.1,45,28,11,29.78,29.66,13,6,26,0.00
2014-7-10,85.7,74.3,66.5,49.7,45.4,40.4,51,37,24,29.78,29.71,12,6,23,0.00
2014-7-11,92.7,80.1,65.0,50.7,44.6,37.1,50,30,16,29.83,29.77,10,5,21,0.00
2014-7-12,105.6,83.8,63.3,52.5,46.9,32.2,56,32,9,29.86,29.75,10,4,17,0.00
2014-7-13,111.5,89.7,70.9,53.5,48.2,39.0,46,27,10,29.82,29.65,11,3,16,0.00
2014-7-14,99.2,86.8,78.9,60.5,53.9,47.7,53,34,20,29.79,29.70,8,3,14,0.00
2014-7-15,95.6,83.3,71.3,62.3,57.3,37.5,68,44,23,29.86,29.76,9,5,17,0.00
2014-7-16,92.7,79.7,67.7,58.9,50.5,35.7,68,40,14,29.83,29.74,14,7,29,0.00
2014-7-17,89.0,76.3,66.8,51.9,43.8,35.5,49,33,17,29.84,29.74,13,8,28,0.00
2014-7-18,94.4,77.1,61.8,53.2,46.4,35.3,56,36,15,29.85,29.75,11,5,19,0.00
2014-7-19,91.0,76.7,65.9,63.1,51.5,43.2,70,44,20,29.83,29.76,6,2,10,0.01
2014-7-20,97.7,77.9,61.5,57.4,54.8,49.1,73,48,21,29.83,29.74,13,5,24,0.00
2014-7-21,92.1,78.8,65.2,56.0,50.4,40.6,67,40,18,29.88,29.82,12,5,26,0.00
2014-7-22,97.3,81.0,65.2,54.9,47.7,30.8,63,36,12,29.92,29.84,11,4,19,0.00
2014-7-23,100.8,82.4,66.7,54.4,46.0,31.5,51,32,10,29.91,29.76,9,5,17,0.00
2014-7-24,106.0,84.6,66.0,55.5,45.0,8.9,65,33,3,29.82,29.62,9,4,15,0.00
2014-7-25,100.1,84.0,67.2,52.2,40.8,21.0,41,25,6,29.78,29.69,13,6,28,0.00
2014-7-26,101.4,86.5,73.2,50.3,43.0,28.6,42,24,10,29.83,29.72,10,5,18,0.00
2014-7-27,100.5,87.3,74.5,47.6,43.1,36.8,34,22,14,29.84,29.74,13,4,26,0.00
2014-7-28,94.3,85.0,74.7,54.7,46.0,38.4,39,26,20,29.94,29.84,10,2,16,0.00
2014-7-29,102.0,85.1,67.0,49.0,44.7,40.6,43,26,14,29.94,29.78,11,3,17,0.00
2014-7-30,102.3,89.4,78.0,51.2,48.5,45.6,35,25,16,29.83,29.74,13,4,20,0.00
2014-7-31,106.3,88.2,70.3,52.2,49.4,45.9,47,29,14,29.82,29.68,10,3,16,0.00
2014-8-1,105.5,89.1,74.1,55.3,47.6,39.1,40,26,11,29.76,29.66,11,4,17,0.00
2014-8-2,100.2,84.1,70.8,59.8,48.5,40.0,55,31,13,29.81,29.71,11,4,20,0.01
2014-8-3,79.8,75.3,70.4,64.7,59.0,53.5,82,58,44,29.90,29.76,11,4,18,0.04
2014-8-4,90.5,78.3,66.2,59.2,46.8,24.6,74,39,13,29.87,29.76,15,6,28,0.00
2014-8-5,93.8,78.3,62.1,53.0,39.8,28.3,51,28,10,29.90,29.81,11,4,20,0.00
2014-8-6,95.3,79.3,63.5,54.9,49.2,39.6,67,39,16,29.87,29.76,10,4,19,0.00
2014-8-7,101.3,80.2,60.2,54.8,47.9,27.6,70,37,8,29.82,29.70,8,3,17,0.00
2014-8-8,102.3,83.1,64.5,55.2,45.7,30.5,59,32,9,29.78,29.69,9,2,17,0.00
2014-8-9,103.3,82.4,63.1,50.5,44.4,31.9,56,30,9,29.81,29.72,12,3,20,0.00
2014-8-10,97.2,81.2,60.4,50.7,43.8,36.3,51,29,14,29.85,29.77,10,3,18,0.00
2014-8-11,96.5,82.5,66.6,52.6,46.9,40.8,52,30,19,29.84,29.75,9,4,16,0.00
2014-8-12,100.0,84.0,69.4,54.7,50.2,43.8,47,33,19,29.84,29.70,10,4,19,0.00
2014-8-13,92.3,79.3,65.7,53.7,49.7,41.6,60,38,18,29.82,29.75,10,5,20,0.00
2014-8-14,92.8,78.0,63.3,52.6,41.2,21.8,59,32,10,29.85,29.78,9,5,17,0.00
2014-8-15,95.6,78.7,56.6,51.3,39.3,23.7,39,26,14,29.90,29.79,10,5,18,0.00
2014-8-16,100.3,83.0,65.2,47.6,41.2,33.8,40,25,14,29.91,29.77,11,4,17,0.00
2014-8-17,103.5,84.9,61.4,41.7,37.0,30.6,38,20,10,29.84,29.70,10,3,19,0.00
2014-8-18,99.5,82.9,65.2,46.8,39.1,25.7,44,23,9,29.74,29.60,12,4,26,0.00
2014-8-19,87.3,75.0,64.5,56.6,47.0,38.4,65,40,20,29.73,29.63,16,7,29,0.00
2014-8-20,90.2,73.2,55.2,53.8,44.7,34.7,74,41,16,29.83,29.73,9,4,16,0.00
2014-8-21,94.1,77.1,59.3,56.5,48.9,41.8,57,39,21,29.85,29.74,9,3,15,0.00
2014-8-22,89.8,77.8,66.1,57.0,53.5,48.9,59,44,28,29.84,29.73,15,6,27,0.00
2014-8-23,90.5,77.1,66.8,49.5,38.9,25.8,45,27,13,29.82,29.68,13,7,23,0.00
2014-8-24,90.7,74.6,57.0,48.9,39.8,25.3,56,32,10,29.78,29.66,13,5,20,0.00
2014-8-25,86.5,72.3,55.2,51.1,38.5,16.5,60,34,8,29.83,29.73,13,6,22,0.00
2014-8-26,90.5,74.7,57.1,50.3,42.4,32.2,58,34,14,29.90,29.78,12,6,21,0.00
2014-8-27,98.7,77.8,55.9,47.5,40.7,28.5,54,30,10,29.97,29.85,11,3,18,0.00
2014-8-28,103.3,83.2,60.5,47.8,41.8,30.5,52,26,10,29.93,29.74,9,3,23,0.00
2014-8-29,102.9,83.4,60.0,44.3,36.8,23.3,46,22,7,29.78,29.64,9,3,17,0.00
2014-8-30,100.3,82.7,63.2,42.7,37.0,30.0,42,22,11,29.72,29.62,13,4,20,0.00
2014-8-31,97.5,83.5,72.5,42.0,36.5,14.7,30,20,6,29.70,29.61,12,5,18,0.00
2014-9-8,73.4,72.0,70.2,35.4,33.5,30.6,25,24,23,29.77,29.76,4,3,7,0.00
2014-9-9,93.3,76.0,58.2,42.6,29.4,0.6,44,22,3,29.85,29.71,10,4,17,0.00
2014-9-10,100.3,76.0,51.3,41.6,29.5,19.9,43,21,7,29.89,29.73,6,2,10,0.00
2014-9-11,68.5,64.1,57.8,38.1,33.0,28.8,47,32,24,29.81,29.79,3,1,5,0.00
2014-9-14,104.9,91.7,67.4,48.3,45.6,41.2,41,22,13,29.75,29.61,8,3,15,0.00
2014-9-15,89.3,75.5,65.8,50.9,47.1,41.8,48,37,26,29.74,29.68,4,1,10,0.00
2014-9-16,105.4,87.7,71.7,53.4,49.5,40.8,45,28,16,29.74,29.58,10,3,15,0.00
2014-9-17,79.3,73.0,69.1,44.1,40.7,37.6,39,32,25,29.67,29.65,3,2,8,0.00
2014-9-18,71.4,69.0,66.6,54.9,53.1,51.4,63,57,55,29.72,29.68,7,5,14,0.00
2014-9-19,93.1,74.7,61.0,57.2,52.7,39.4,78,50,17,29.78,29.69,8,3,13,0.00
2014-9-20,93.5,74.3,58.1,55.7,50.8,45.6,76,47,21,29.83,29.71,8,3,15,0.00
2014-9-21,92.6,74.1,56.8,53.3,49.2,40.9,74,45,17,29.87,29.77,9,3,15,0.00
2014-9-22,97.7,75.3,55.1,51.5,45.2,35.1,69,40,14,29.92,29.79,6,2,13,0.00
2014-9-23,96.4,73.9,53.3,43.5,33.5,11.0,56,28,6,29.92,29.78,7,2,12,0.00
2014-9-24,94.6,74.5,51.4,44.4,34.4,20.2,45,25,12,29.90,29.76,9,2,13,0.00
2014-9-25,90.2,76.4,63.4,56.9,51.0,41.1,72,43,28,29.84,29.73,11,5,21,0.00
2014-9-26,82.9,69.1,56.7,54.2,47.2,31.8,77,51,16,29.79,29.68,11,6,19,0.00
2014-9-27,69.8,61.5,53.6,48.6,42.0,34.9,73,51,28,29.80,29.71,16,8,22,0.00
2014-9-28,76.1,63.9,54.4,50.2,44.6,37.3,76,52,25,29.85,29.75,11,5,18,0.00
2014-9-29,82.0,65.5,51.1,48.7,45.4,40.9,79,52,26,29.92,29.82,7,2,12,0.00
2014-9-30,89.0,67.7,47.7,47.0,41.9,35.0,75,44,15,29.87,29.67,10,3,16,0.00
2014-10-1,89.5,72.7,57.2,49.8,40.1,21.9,68,36,14,29.88,29.68,12,4,19,0.00
2014-10-2,90.3,69.5,47.4,26.2,20.8,12.5,40,18,7,30.05,29.88,8,2,13,0.00
2014-10-3,95.3,68.3,42.3,23.0,16.8,7.6,37,17,4,30.12,29.97,6,2,14,0.00
2014-10-4,96.7,72.3,49.5,33.0,22.4,15.2,35,18,6,30.03,29.85,7,2,12,0.00
2014-10-5,98.8,73.4,49.3,31.6,25.6,19.4,37,20,6,29.95,29.81,5,1,10,0.00
2014-10-6,100.0,73.7,49.1,39.1,27.6,18.4,46,22,6,29.91,29.76,4,1,8,0.00
2014-10-7,96.4,73.3,52.6,36.0,30.1,22.9,40,23,8,29.85,29.72,9,2,16,0.00
2014-10-8,93.3,72.9,53.7,41.9,35.4,28.5,44,27,15,29.83,29.69,10,2,16,0.00
2014-10-9,88.8,74.3,57.0,41.0,32.8,24.8,46,24,11,29.82,29.73,15,6,22,0.00
2014-10-10,89.7,72.5,53.7,39.9,33.9,27.0,45,26,11,29.89,29.80,8,3,12,0.00
2014-10-11,94.5,69.7,48.8,41.4,35.1,28.5,54,31,10,29.97,29.83,7,2,10,0.00
2014-10-12,93.5,74.0,56.3,42.7,28.0,-0.4,48,23,3,29.90,29.78,9,3,15,0.00
2014-10-13,90.7,67.7,45.8,24.7,18.2,12.4,40,18,6,30.04,29.90,5,2,11,0.00
2014-10-14,84.8,64.4,44.5,45.3,26.3,10.3,46,25,9,29.96,29.78,12,4,17,0.00
2014-10-15,74.7,64.4,56.8,51.6,47.1,39.1,72,55,38,29.89,29.81,12,7,19,0.00
2014-10-16,81.3,64.5,53.2,51.2,46.2,37.0,75,55,23,29.94,29.80,10,4,15,0.00
2014-10-17,77.1,62.4,48.2,49.8,45.5,36.8,84,57,25,29.90,29.80,10,4,19,0.00
2014-10-18,84.9,63.6,44.4,46.7,40.6,33.9,82,48,19,29.89,29.77,6,2,15,0.00
2014-10-19,91.0,66.0,45.8,49.7,40.3,31.3,66,43,18,29.87,29.74,6,2,9,0.00
2014-10-20,84.0,66.7,50.2,46.8,40.3,35.3,67,41,22,29.85,29.75,10,4,19,0.00
2014-10-25,80.0,71.1,57.5,48.9,41.1,33.4,73,36,23,29.97,29.89,13,7,21,0.00
2014-10-26,68.6,59.2,48.3,49.0,44.7,38.1,78,60,42,29.94,29.82,12,6,25,0.00
2014-10-27,79.8,59.2,44.8,43.0,36.1,27.9,75,47,17,29.97,29.86,7,2,12,0.00
2014-10-28,82.9,59.4,38.0,34.0,27.8,22.7,59,35,12,30.07,29.95,5,1,10,0.00
2014-10-29,86.8,61.6,40.9,31.1,24.3,17.0,50,27,9,30.11,29.96,5,1,9,0.00
2014-10-30,84.7,61.5,44.5,41.8,27.0,16.8,41,29,11,30.02,29.86,7,2,10,0.00
2014-10-31,66.3,58.2,50.9,51.9,45.1,30.4,85,62,41,29.90,29.70,11,5,24,0.01
2014-11-1,58.9,51.0,45.6,49.7,43.9,39.7,92,78,53,29.94,29.72,14,5,19,0.20
2014-11-2,61.3,51.3,43.6,42.2,37.3,33.0,85,61,35,30.09,29.93,15,6,20,0.00
2014-11-3,67.7,49.1,32.4,37.7,30.4,22.2,93,56,19,30.25,30.09,6,2,11,0.00
2014-11-4,73.0,50.4,31.0,32.8,26.5,21.2,82,47,15,30.35,30.20,5,2,10,0.00
2014-11-5,79.6,56.4,35.2,32.2,27.4,21.0,72,38,14,30.27,30.13,6,2,11,0.00
2014-11-6,84.5,58.1,39.1,35.9,31.6,28.0,72,42,14,30.26,30.12,3,1,8,0.00
2014-11-7,84.5,58.9,40.2,34.9,30.6,24.9,66,40,13,30.20,30.03,4,1,8,0.00
2014-11-8,84.7,54.7,40.5,35.3,31.0,28.0,67,44,16,30.16,30.01,5,2,8,0.00
2014-11-9,86.3,61.7,40.3,37.5,31.3,27.8,64,36,13,30.03,29.75,7,2,15,0.00
2014-11-10,79.7,64.3,52.3,46.5,37.3,30.0,61,39,17,29.75,29.64,14,5,23,0.00
2014-11-11,68.3,58.0,50.3,48.4,45.8,39.8,80,65,43,29.83,29.72,12,6,18,0.00
2014-11-12,72.8,58.1,50.2,45.8,42.0,36.3,80,58,28,29.90,29.81,12,5,19,0.00
2014-11-13,71.3,61.3,50.8,52.7,46.9,34.5,76,60,47,29.96,29.88,15,7,22,0.00
2014-11-14,70.1,58.7,52.3,48.4,43.5,39.1,78,59,35,29.96,29.88,14,6,20,0.00
2014-11-15,67.4,56.6,49.4,43.4,39.2,33.1,71,54,30,30.03,29.91,18,8,28,0.00
2014-11-16,62.1,52.4,44.4,38.2,10.1,-7.7,61,24,6,30.30,30.01,14,5,21,0.00
2014-11-17,66.0,50.0,31.3,9.1,2.5,-4.4,27,15,7,30.31,30.19,7,2,12,0.00
2014-11-18,65.5,47.2,28.7,14.1,8.5,1.4,39,22,11,30.32,30.17,5,1,10,0.00
2014-11-19,70.2,53.1,39.1,34.7,19.9,9.5,60,29,12,30.18,30.02,9,3,15,0.00
2014-11-20,66.5,53.1,40.4,46.7,39.5,29.8,79,61,37,30.06,29.89,10,4,19,0.00
2014-11-21,63.5,53.4,41.7,43.2,39.5,34.8,79,61,38,30.07,29.88,14,7,20,0.00
2014-11-22,67.8,52.6,36.4,47.3,40.0,31.8,86,65,34,30.08,29.92,21,6,31,0.00
2014-11-23,68.3,54.9,40.1,45.5,29.7,16.3,71,42,15,30.25,30.01,19,5,30,0.00
2014-11-24,68.8,47.5,30.5,26.6,18.9,9.6,68,38,12,30.45,30.22,7,2,15,0.00
2014-11-25,70.9,46.4,28.7,17.1,12.3,6.9,49,28,10,30.51,30.34,3,1,7,0.00
2014-11-26,77.6,49.7,31.1,19.1,13.5,7.8,44,26,10,30.42,30.26,3,1,5,0.00
2014-11-27,76.8,49.9,31.6,23.0,16.9,10.7,47,29,12,30.29,30.11,3,1,5,0.00
2014-11-28,40.4,33.9,30.3,18.1,14.2,11.7,50,44,36,30.11,30.06,2,0,3,0.00
2014-11-29,73.1,62.8,42.6,29.8,23.3,16.3,42,24,12,29.89,29.76,13,6,23,0.00
2014-11-30,61.2,53.6,43.4,49.7,44.4,27.6,93,72,37,30.09,29.80,12,5,18,0.00
2014-12-1,60.9,49.8,40.6,48.5,43.3,36.8,92,79,63,30.20,30.06,6,2,9,0.00
2014-12-2,51.8,49.6,46.9,49.5,46.3,40.7,95,89,79,30.09,29.90,13,4,17,0.68
2014-12-3,55.8,52.9,50.5,53.7,51.5,48.8,98,95,90,30.01,29.91,4,1,7,0.07
2014-12-4,63.1,53.8,47.0,54.4,49.8,44.5,99,87,63,30.04,29.91,9,3,16,0.01
2014-12-5,59.7,50.9,44.0,51.7,47.6,42.6,97,89,72,30.16,30.03,3,1,6,0.00
2014-12-6,66.5,51.9,41.2,52.9,46.5,40.4,99,84,51,30.25,30.14,5,1,10,0.01
2014-12-7,65.9,46.4,37.0,49.5,42.3,36.0,98,87,49,30.31,30.18,3,1,6,0.01
2014-12-11,55.4,55.0,54.4,45.4,45.0,44.6,70,69,68,29.85,29.82,8,5,10,0.00
2014-12-12,54.0,46.7,42.7,48.7,44.1,39.8,96,91,72,30.02,29.74,15,3,20,1.11
2014-12-13,55.4,46.9,35.2,40.5,37.5,32.6,91,71,53,30.14,30.00,12,5,17,0.00
2014-12-14,57.8,40.0,31.7,41.2,35.0,30.1,95,84,51,30.18,30.08,3,1,7,0.00
2014-12-15,35.9,34.6,33.9,34.1,33.0,32.4,95,94,93,30.12,30.11,1,0,2,0.00
2014-12-17,51.7,46.1,38.9,43.2,38.6,34.9,86,75,63,30.10,30.01,14,5,19,0.32
2014-12-18,59.0,44.5,34.3,41.0,36.6,32.5,94,76,44,30.24,30.08,6,2,11,0.00
2014-12-19,58.3,44.0,33.4,43.5,38.3,32.1,96,81,55,30.26,30.13,3,1,11,0.00
2014-12-20,56.1,47.5,37.6,48.9,42.3,35.8,94,83,70,30.19,30.06,15,3,20,0.00
2014-12-21,65.3,53.2,42.0,50.4,45.4,39.3,91,76,56,30.18,30.05,15,4,19,0.00
2014-12-22,69.8,54.7,42.9,49.7,45.4,40.3,93,72,47,30.14,30.00,12,3,20,0.00
2014-12-23,71.5,51.0,36.6,49.5,40.5,35.0,97,72,31,30.25,30.13,5,2,11,0.00
2014-12-24,63.5,49.0,34.7,45.7,39.2,32.9,94,72,43,30.18,29.76,15,3,20,0.00
2014-12-25,49.9,43.4,34.7,39.9,28.8,21.3,77,57,38,30.00,29.72,25,8,32,0.00
2014-12-26,53.3,38.1,26.1,29.6,21.8,15.7,88,57,24,30.31,30.00,6,2,11,0.00
2014-12-27,52.7,38.0,27.8,22.5,18.0,14.5,77,47,23,30.47,30.30,5,2,12,0.00
2014-12-28,55.3,37.6,25.7,25.4,22.6,17.0,86,59,27,30.36,30.15,4,1,11,0.00
2014-12-29,64.4,47.9,35.7,28.1,19.9,1.5,63,37,10,30.18,29.94,16,5,23,0.00
2014-12-30,51.4,43.0,37.3,31.4,22.2,8.9,75,46,25,30.02,29.90,14,7,25,0.00
2014-12-31,47.7,35.7,25.5,20.5,11.8,3.2,69,39,20,30.12,30.01,12,4,22,0.00
2015-1-1,54.4,32.6,17.9,20.3,11.9,-1.7,84,49,10,30.22,30.07,4,2,9,0.00
2015-1-2,56.4,34.2,19.1,16.5,12.7,5.9,78,47,15,30.25,30.11,3,1,5,0.00